Date,TemperatureHighF,TemperatureAvgF,TemperatureLowF,DewpointHighF,DewpointAvgF,DewpointLowF,HumidityHigh,HumidityAvg,HumidityLow,PressureMaxIn,PressureMinIn,WindSpeedMaxMPH,WindSpeedAvgMPH,GustSpeedMaxMPH,PrecipitationSumIn
2013-1-1,39,36,30,32,32,32,68,61,51,30.01,29.86,15,5,15,0.00
2013-1-2,31,26,20,32,32,32,74,56,44,30.22,29.98,22,5,22,0.00
2013-1-3,33,25,17,32,32,32,77,60,44,30.22,30.10,17,4,17,0.00
2013-1-4,37,30,22,32,32,32,77,56,45,30.13,30.04,25,7,25,0.00
2013-1-5,38,29,22,32,32,32,80,60,43,30.34,30.07,19,4,19,0.00
2013-1-6,46,40,0,39,32,32,97,56,41,30.13,0.00,17,5,17,0.00
2013-1-7,43,35,21,32,32,32,86,61,44,30.40,30.10,17,5,17,0.00
2013-1-8,50,30,18,32,32,32,95,76,41,30.40,30.34,12,2,12,0.00
2013-1-9,45,33,21,39,33,32,97,86,62,30.37,30.16,11,2,11,0.00
2013-1-10,45,38,0,32,32,32,84,61,44,30.54,30.31,15,4,15,0.00
2013-1-11,44,37,27,41,35,32,100,86,73,30.48,30.07,15,3,15,0.28
2013-1-12,55,44,36,50,42,36,100,93,74,30.16,30.07,6,1,6,0.00
2013-1-13,46,43,36,46,43,36,100,98,97,30.13,29.98,8,3,10,0.00
2013-1-14,52,47,38,52,42,32,97,82,52,30.28,29.92,13,4,17,0.28
2013-1-15,38,36,32,37,33,32,96,77,61,30.34,30.16,11,4,11,0.43
2013-1-16,35,34,32,36,34,32,100,100,96,30.16,29.83,12,2,15,0.75
2013-1-17,40,37,34,37,32,32,100,69,52,30.10,29.95,15,4,18,0.00
2013-1-18,34,29,20,32,32,32,74,53,36,30.45,30.01,22,6,23,0.00
2013-1-19,48,37,26,32,32,32,75,56,41,30.40,29.95,17,8,21,0.00
2013-1-20,54,40,28,32,32,32,66,46,29,30.07,29.77,23,9,31,0.00
2013-1-21,33,26,21,32,32,32,90,54,43,30.10,29.83,13,6,15,0.00
2013-1-22,23,16,9,32,32,32,58,42,37,30.25,29.89,23,10,28,0.00
2013-1-23,19,13,7,32,32,32,48,42,38,30.28,30.16,16,6,20,0.00
2013-1-24,24,16,9,32,32,32,65,45,34,30.45,30.10,19,6,26,0.00
2013-1-25,20,14,5,32,32,32,83,59,43,30.45,30.04,12,3,12,0.00
2013-1-26,25,17,4,32,32,32,92,67,50,30.40,30.07,17,5,17,0.00
2013-1-27,34,19,5,32,32,32,87,60,41,30.54,30.40,11,2,14,0.00
2013-1-28,34,29,19,34,32,32,100,93,79,30.48,30.04,13,4,17,0.08
2013-1-29,60,43,33,50,40,32,100,90,63,30.13,29.98,8,2,15,0.00
2013-1-30,64,51,34,57,49,34,100,93,78,30.01,29.27,23,6,28,1.14
2013-1-31,60,40,24,59,37,32,95,55,37,29.86,29.12,33,14,39,0.55
2013-2-1,27,23,17,32,32,32,89,49,38,30.31,29.83,32,10,32,0.00
2013-2-2,25,20,10,32,32,32,89,59,42,30.34,30.01,12,5,17,0.00
2013-2-3,34,25,17,32,32,32,95,78,46,30.01,29.81,13,2,28,0.08
2013-2-4,30,24,19,32,32,32,77,52,42,30.04,29.89,15,6,21,0.00
2013-2-5,33,29,26,32,32,32,96,83,70,29.92,29.86,5,2,6,0.00
2013-2-6,38,29,22,32,32,32,100,75,48,30.34,29.89,15,4,18,0.00
2013-2-7,34,28,18,32,32,32,91,62,41,30.45,30.22,12,4,17,0.00
2013-2-8,35,33,30,36,33,32,100,87,60,30.22,29.72,20,8,28,0.16
2013-2-9,32,26,22,32,32,32,68,57,48,30.19,29.83,29,16,32,0.00
2013-2-13,34,32,31,32,32,32,98,95,88,29.72,29.69,8,4,10,0.04
2013-2-14,46,34,25,32,32,32,98,74,38,30.01,29.75,11,3,15,0.12
2013-2-15,57,40,26,34,32,32,97,71,37,30.01,29.89,20,4,20,0.08
2013-2-16,34,31,28,32,32,32,98,77,47,29.98,29.81,14,4,15,0.16
2013-2-17,29,24,20,32,32,32,52,45,39,30.13,29.77,25,13,31,0.00
2013-2-18,37,25,15,32,32,32,53,43,33,30.31,30.10,17,7,28,0.00
2013-2-19,40,34,28,39,34,32,97,73,51,30.16,29.72,14,7,26,0.16
2013-2-20,34,27,21,32,32,32,67,48,43,30.10,29.81,21,11,28,0.00
2013-2-21,33,26,20,32,32,32,59,48,42,30.31,30.04,18,9,28,0.00
2013-2-22,32,28,22,32,32,32,88,67,55,30.37,30.22,12,6,16,0.00
2013-2-23,43,37,30,43,37,32,98,97,88,30.22,29.81,8,3,11,0.12
2013-2-25,45,36,26,32,32,32,79,53,41,30.22,30.13,13,6,16,0.00
2013-2-26,41,36,22,36,33,32,96,80,59,30.22,29.66,20,8,25,0.39
2013-2-27,50,43,36,43,36,32,98,75,49,29.69,29.51,15,6,30,0.16
2013-2-28,44,38,30,34,32,32,85,66,42,29.69,29.60,13,5,19,0.00
2013-3-1,42,37,31,32,32,32,85,62,49,29.83,29.69,15,7,17,0.00
2013-3-2,36,32,28,32,32,32,67,54,44,29.83,29.75,15,8,17,0.00
2013-3-3,34,30,24,32,32,32,68,54,45,29.83,29.75,17,10,24,0.00
2013-3-4,37,30,25,32,32,32,56,50,42,30.01,29.83,23,12,29,0.00
2013-3-5,46,33,24,32,32,32,77,56,41,30.04,29.89,15,6,17,0.00
2013-3-6,37,35,32,34,32,32,97,81,56,29.95,29.72,37,13,37,0.35
2013-3-7,46,38,32,32,32,32,63,50,40,30.10,29.95,17,10,26,0.00
2013-3-8,41,36,30,32,32,32,75,51,46,30.25,30.07,28,12,30,0.00
2013-3-9,59,41,28,32,32,32,78,45,25,30.31,30.22,10,5,15,0.00
2013-3-10,57,40,23,34,32,32,95,63,28,30.34,30.22,17,6,17,0.00
2013-3-11,53,45,35,46,41,34,98,86,65,30.28,29.98,13,8,17,0.00
2013-3-12,56,49,39,55,44,32,95,81,55,29.98,29.72,17,9,29,1.06
2013-3-13,47,37,26,34,32,32,91,56,38,29.98,29.86,23,7,28,0.00
2013-3-14,40,32,27,32,32,32,56,43,35,30.04,29.95,26,13,32,0.00
2013-3-15,52,36,20,32,32,32,70,47,33,30.04,29.77,13,4,22,0.00
2013-3-16,40,35,30,32,32,32,95,75,54,29.92,29.72,12,4,17,0.08
2013-3-17,38,32,27,32,32,32,96,68,44,30.28,29.92,13,4,15,0.00
2013-3-18,35,31,27,34,32,32,98,69,45,30.34,29.86,14,6,22,0.51
2013-3-19,52,40,34,36,33,32,98,71,31,29.89,29.72,25,7,30,0.12
2013-3-20,46,36,23,32,32,32,67,43,30,29.95,29.77,20,8,26,0.00
2013-3-21,35,30,24,32,32,32,90,49,37,29.83,29.69,19,9,26,0.00
2013-3-22,41,30,22,32,32,32,61,49,39,29.95,29.81,23,8,25,0.00
2013-3-23,46,36,22,32,32,32,74,48,37,29.98,29.92,17,8,22,0.00
2013-3-24,43,32,20,32,32,32,86,57,38,29.98,29.69,10,3,15,0.00
2013-3-25,35,33,30,32,32,32,98,90,80,29.66,29.51,11,5,16,0.39
2013-3-26,48,38,30,32,32,32,95,69,37,29.95,29.66,16,6,17,0.00
2013-3-27,47,39,33,32,32,32,72,54,38,30.07,29.92,24,8,26,0.00
2013-3-28,45,39,32,32,32,32,75,55,41,30.19,30.01,22,8,22,0.00
2013-3-29,51,41,28,32,32,32,81,50,37,30.22,30.10,15,6,20,0.00
2013-3-30,56,40,23,36,32,32,91,56,27,30.22,30.10,13,2,17,0.00
2013-3-31,51,40,27,43,36,32,97,81,47,30.13,29.72,14,4,16,0.00
2013-4-1,60,43,30,45,34,32,98,64,35,29.95,29.69,23,7,28,0.00
2013-4-2,42,33,20,32,32,32,73,41,31,30.16,29.95,22,7,27,0.00
2013-4-3,45,33,20,32,32,32,70,42,30,30.34,30.13,23,7,28,0.00
2013-4-4,48,34,18,32,32,32,76,46,30,30.42,30.07,11,5,20,0.00
2013-4-5,60,47,35,37,32,32,96,49,26,30.07,29.81,17,8,24,0.00
2013-4-6,54,42,31,32,32,32,51,37,27,30.31,30.01,15,6,20,0.00
2013-4-7,61,48,36,39,34,32,78,54,38,30.28,29.98,20,9,29,0.00
2013-4-8,74,60,41,48,42,36,90,56,32,30.07,29.98,13,5,18,0.00
2013-4-9,80,66,46,54,46,43,90,54,30,30.04,29.92,17,5,20,0.00
2013-4-10,86,72,50,55,50,46,88,49,29,29.95,29.77,23,6,33,0.00
2013-4-11,79,61,49,63,52,43,95,75,39,29.92,29.83,17,5,26,0.04
2013-4-12,49,46,42,48,44,41,97,95,89,29.89,29.63,16,7,20,0.51
2013-4-13,61,48,35,46,36,32,98,67,34,29.95,29.77,11,4,15,0.12
2013-4-14,61,48,32,45,33,32,95,58,29,30.16,29.95,12,3,17,0.00
2013-4-15,58,50,45,45,38,32,80,62,47,30.31,30.13,15,8,19,0.00
2013-4-16,68,57,47,54,48,43,85,73,55,30.31,30.10,22,8,28,0.00
2013-4-17,69,58,52,57,49,37,95,73,39,30.25,30.10,12,4,15,0.00
2013-4-18,62,55,52,59,49,32,94,80,47,30.28,30.01,20,8,24,0.04
2013-4-19,72,62,51,63,58,46,94,85,66,30.01,29.60,15,8,27,0.79
2013-4-20,54,48,39,50,35,32,94,53,33,30.31,29.75,25,9,26,0.12
2013-4-21,55,42,32,32,32,32,72,46,32,30.57,30.31,14,5,19,0.00
2013-4-22,54,42,28,36,32,32,96,63,39,30.57,30.42,15,5,21,0.00
2013-4-23,58,47,40,41,36,32,90,66,49,30.42,30.13,13,4,13,0.00
2013-4-24,68,52,33,54,45,32,97,78,50,30.13,29.81,20,5,27,0.00
2013-4-25,62,49,38,45,32,32,78,48,28,30.28,29.92,20,7,32,0.00
2013-4-26,62,47,32,39,32,32,96,57,26,30.42,30.28,13,4,15,0.00
2013-4-27,69,50,31,46,33,32,96,55,25,30.42,30.28,8,2,13,0.00
2013-4-28,66,52,35,46,34,32,93,54,32,30.28,30.16,15,5,22,0.00
2013-4-29,56,52,48,54,49,32,95,88,48,30.19,30.07,15,7,20,0.31
2013-4-30,65,56,44,50,44,32,96,68,37,30.31,30.13,15,6,19,0.00
2013-5-1,68,53,35,39,34,32,92,53,26,30.45,30.31,11,5,16,0.00
2013-5-2,68,53,34,46,38,32,96,62,34,30.42,30.31,13,3,15,0.00
2013-5-3,64,51,39,45,37,34,97,64,33,30.40,30.31,15,4,17,0.00
2013-5-4,67,51,34,48,36,32,97,62,31,30.34,30.19,15,3,19,0.00
2013-5-5,62,50,39,43,36,34,87,61,36,30.25,30.16,14,5,17,0.00
2013-5-6,65,52,36,54,46,34,97,80,58,30.19,30.10,11,4,15,0.00
2013-5-7,66,58,52,59,54,50,96,88,65,30.10,30.01,13,6,18,0.31
2013-5-8,69,61,55,59,53,45,95,78,45,30.01,29.92,10,3,17,0.04
2013-5-9,69,60,52,55,53,50,95,79,53,29.98,29.92,9,2,10,0.00
2013-5-10,79,66,48,61,53,46,96,67,34,30.01,29.89,14,3,17,0.67
2013-5-11,75,64,59,64,60,57,94,86,59,29.95,29.72,11,4,17,0.31
2013-5-12,60,56,44,57,37,32,94,48,29,30.01,29.72,22,8,29,0.04
2013-5-13,54,44,34,39,32,32,93,56,31,30.13,29.98,26,4,26,0.00
2013-5-14,60,46,28,43,33,32,95,57,28,30.16,30.04,14,3,17,0.04
2013-5-15,72,57,46,57,48,39,92,74,50,30.07,29.72,16,4,19,0.00
2013-5-16,80,66,54,63,56,52,95,73,41,29.89,29.72,13,4,17,0.00
2013-5-17,77,65,50,54,42,37,72,46,28,30.19,29.89,10,4,13,0.00
2013-5-18,68,59,53,55,50,43,94,71,44,30.25,30.19,13,6,17,0.08
2013-5-19,62,59,56,61,58,54,95,94,92,30.25,30.13,15,6,17,0.00
2013-5-20,78,68,60,68,62,59,95,83,61,30.16,29.98,11,2,14,0.00
2013-5-21,82,70,60,68,65,59,94,83,61,29.98,29.89,13,4,15,0.00
2013-5-22,85,74,66,72,68,64,93,80,61,29.92,29.83,14,4,18,0.00
2013-5-23,78,70,64,68,64,61,93,82,65,29.92,29.77,15,5,20,0.47
2013-5-24,64,55,45,63,47,32,94,75,52,30.07,29.75,23,8,29,0.12
2013-5-25,63,53,44,36,32,32,73,46,33,30.10,30.01,26,10,30,0.00
2013-5-26,68,55,41,39,34,32,77,47,27,30.19,30.07,17,6,24,0.00
2013-5-27,71,55,37,50,40,34,95,61,29,30.28,30.16,10,2,14,0.00
2013-5-28,67,58,50,61,55,46,93,89,81,30.22,30.10,8,2,10,0.08
2013-5-29,88,72,56,66,60,54,95,69,34,30.13,30.07,10,3,17,0.00
2013-5-30,90,75,59,70,61,55,94,66,34,30.19,30.10,9,3,13,0.00
2013-5-31,86,74,60,70,61,52,94,66,33,30.16,30.04,13,4,17,0.00
2013-6-1,86,75,62,68,64,61,93,69,44,30.04,29.92,12,4,15,0.00
2013-6-2,82,74,66,68,64,61,91,72,49,29.95,29.83,12,6,17,0.00
2013-6-3,81,69,60,66,60,52,94,75,47,29.92,29.83,10,2,12,0.39
2013-6-4,73,62,50,54,43,36,89,51,32,30.13,29.92,11,4,22,0.00
2013-6-5,76,62,45,55,43,37,95,56,31,30.19,30.07,9,3,12,0.00
2013-6-6,68,62,53,61,53,45,93,73,44,30.13,29.92,15,7,22,0.35
2013-6-7,68,64,59,66,62,55,94,93,90,29.92,29.60,14,5,19,2.60
2013-6-8,77,67,59,63,59,57,93,77,51,30.10,29.66,10,4,15,0.00
2013-6-9,80,68,56,66,58,54,95,72,42,30.19,30.10,9,1,11,0.00
2013-6-10,76,69,66,72,66,59,93,90,81,30.16,29.81,13,4,16,1.30
2013-6-11,79,72,65,66,62,55,93,72,54,29.83,29.75,13,6,19,0.04
2013-6-12,80,71,60,66,60,55,91,70,48,29.86,29.81,14,3,18,0.04
2013-6-13,84,70,62,70,62,55,93,78,45,29.86,29.45,22,6,38,0.67
2013-6-14,76,64,55,55,51,45,92,66,38,29.95,29.57,17,6,19,0.04
2013-6-15,79,66,52,64,52,45,94,64,32,30.07,29.95,11,3,15,0.00
2013-6-16,79,66,52,66,58,50,94,80,50,30.04,29.86,14,2,17,0.12
2013-6-17,84,70,60,68,62,59,94,77,50,29.95,29.89,8,2,15,0.16
2013-6-18,74,66,60,68,62,59,94,88,77,29.95,29.81,10,1,15,0.12
2013-6-19,80,67,58,63,54,45,94,66,31,30.16,29.89,12,2,15,0.08
2013-6-20,78,66,52,64,53,48,94,66,37,30.28,30.16,10,2,14,0.00
2013-6-21,79,66,51,57,50,45,92,60,32,30.31,30.25,11,2,13,0.00
2013-6-22,82,68,52,64,59,50,93,73,51,30.28,30.13,10,2,13,0.00
2013-6-23,83,71,60,72,65,57,93,82,60,30.19,30.07,10,2,14,0.12
2013-6-24,89,74,65,73,68,63,93,82,47,30.13,30.07,8,2,8,0.12
2013-6-25,91,81,66,72,66,61,91,63,39,29.98,29.89,8,8,26,0.24
2013-6-26,87,75,63,73,66,61,93,76,50,29.92,29.81,8,7,26,0.04
2013-6-27,84,73,65,73,67,63,93,84,61,29.83,29.60,0,0,0,1.02
2013-6-28,85,72,68,70,66,63,93,82,52,29.63,29.51,0,0,0,0.59
2013-6-29,86,75,64,72,64,57,94,71,41,29.72,29.51,0,0,0,0.00
2013-6-30,83,74,67,75,68,64,92,84,68,29.86,29.72,0,0,0,0.12
2013-7-1,79,75,70,72,70,66,92,87,76,30.01,29.83,0,0,0,1.06
2013-7-2,83,76,73,73,71,70,91,86,68,30.19,30.01,0,0,0,0.71
2013-7-3,87,77,72,75,72,68,91,85,66,30.25,30.16,0,0,0,0.12
2013-7-4,88,79,72,75,72,68,91,79,63,30.25,30.19,0,0,0,0.04
2013-7-5,88,80,73,75,72,70,91,76,60,30.22,30.13,0,0,0,0.00
2013-7-6,91,80,70,75,71,66,91,75,47,30.19,30.07,0,0,20,0.00
2013-7-7,89,77,68,73,68,64,92,77,53,30.10,29.98,10,1,16,0.28
2013-7-8,84,73,66,72,66,63,93,80,49,30.10,30.01,17,1,17,0.04
2013-7-9,83,74,68,72,68,64,92,81,60,30.10,30.01,9,1,10,0.00
2013-7-10,86,76,70,73,70,66,92,82,63,30.01,29.86,11,2,17,0.12
2013-7-12,68,68,68,66,66,66,92,92,92,30.01,30.01,8,8,13,0.00
2013-7-13,87,76,69,73,70,68,93,82,58,30.31,30.07,10,3,11,0.12
2013-7-14,91,80,70,79,71,68,92,76,47,30.34,30.28,8,1,9,0.00
2013-7-15,93,79,67,75,69,64,92,74,42,30.31,30.19,8,2,10,0.00
2013-7-16,92,81,70,73,67,61,92,67,38,30.25,30.16,12,3,13,0.00
2013-7-17,94,80,67,75,66,61,92,68,34,30.22,30.10,9,2,11,0.00
2013-7-18,94,81,69,75,70,66,92,72,40,30.13,30.01,8,2,9,0.00
2013-7-19,85,75,72,77,71,68,91,89,72,30.01,29.98,5,1,8,0.00
2013-7-21,87,78,69,70,67,64,90,69,45,29.95,29.89,6,2,8,0.00
2013-7-22,86,75,68,72,68,64,92,79,51,29.95,29.75,16,3,17,1.22
2013-7-23,85,74,68,72,67,61,92,80,49,29.77,29.66,13,10,22,0.94
2013-7-24,79,71,65,68,61,48,93,70,43,29.95,29.66,8,3,15,0.00
2013-7-25,72,64,55,59,53,46,90,69,51,30.04,29.92,10,4,11,0.00
2013-7-26,81,69,58,61,56,50,92,67,34,30.07,30.01,8,2,11,0.00
2013-7-27,80,69,58,70,61,55,93,76,55,30.07,29.92,11,3,16,0.00
2013-7-28,83,72,66,70,64,59,91,77,52,29.98,29.89,10,3,13,0.00
2013-7-29,79,68,59,63,55,46,94,66,34,30.16,29.95,12,3,20,0.59
2013-7-30,79,66,54,66,54,50,94,68,37,30.22,30.13,13,2,13,0.00
2013-7-31,79,69,58,66,60,55,94,76,48,30.16,30.04,8,2,10,0.00
2013-8-1,76,68,65,70,65,61,93,87,71,30.04,29.83,6,2,10,0.71
2013-8-2,83,75,64,68,60,54,93,62,41,29.95,29.89,10,3,15,0.04
2013-8-3,74,67,61,66,62,59,93,85,68,29.95,29.89,7,1,9,0.00
2013-8-4,77,67,57,61,54,46,94,66,35,30.01,29.86,14,4,22,0.00
2013-8-5,77,64,52,61,51,45,94,67,33,30.10,30.01,10,2,12,0.00
2013-8-6,68,62,55,63,59,54,94,89,78,30.10,30.04,13,4,17,0.00
2013-8-7,76,69,63,68,65,61,93,88,75,30.10,30.01,10,4,15,0.39
2013-8-8,85,74,66,73,69,64,93,83,63,30.04,30.01,10,4,16,0.35
2013-8-9,87,78,73,75,72,70,91,82,61,30.01,29.86,15,4,17,0.04
2013-8-10,85,74,65,70,63,55,91,69,41,30.07,29.92,8,3,9,0.00
2013-8-11,84,70,60,66,61,54,94,74,44,30.13,30.04,10,2,11,0.00
2013-8-12,86,73,65,72,64,57,93,75,41,30.04,29.92,9,1,9,0.04
2013-8-13,83,70,65,68,65,61,93,84,52,29.92,29.75,10,3,13,1.77
2013-8-14,72,63,53,59,47,41,89,58,38,30.10,29.81,18,6,20,0.00
2013-8-15,76,60,47,63,48,43,95,69,33,30.19,30.10,9,2,10,0.00
2013-8-16,79,63,49,63,51,45,94,70,33,30.22,30.13,5,1,9,0.00
2013-8-17,78,65,50,63,52,46,95,69,36,30.28,30.22,8,2,13,0.00
2013-8-18,72,64,60,61,56,50,93,76,45,30.25,30.16,10,2,10,0.00
2013-8-19,73,64,57,63,59,55,94,82,64,30.19,30.07,6,1,8,0.00
2013-8-20,85,70,58,66,60,55,94,74,38,30.16,30.07,9,2,10,0.00
2013-8-21,85,72,60,70,64,57,94,77,50,30.22,30.07,10,2,13,0.00
2013-8-22,85,75,68,70,66,63,92,76,49,30.10,29.92,11,3,13,0.00
2013-8-23,76,68,59,66,60,50,92,77,41,30.10,29.92,9,2,12,0.04
2013-8-24,81,66,54,61,52,46,95,67,31,30.37,30.10,10,2,13,0.00
2013-8-25,79,63,50,64,52,48,94,73,35,30.42,30.28,8,2,13,0.00
2013-8-26,84,68,54,64,58,52,94,74,40,30.28,29.98,9,2,13,0.00
2013-8-27,86,74,65,68,63,59,90,71,41,29.98,29.89,13,3,14,0.00
2013-8-28,80,70,65,72,67,63,93,88,66,29.92,29.83,9,2,11,1.50
2013-8-29,85,73,68,68,66,63,93,81,48,30.04,29.86,8,3,10,0.00
2013-8-30,84,73,66,70,67,64,92,80,59,30.04,29.89,10,3,13,0.00
2013-8-31,86,76,69,72,69,66,91,79,61,29.89,29.81,10,4,15,0.04
2013-9-1,86,77,69,72,69,64,92,78,55,29.86,29.77,9,2,14,0.00
2013-9-2,88,76,68,72,68,59,92,77,43,29.81,29.72,11,2,17,0.00
2013-9-3,81,72,62,68,57,48,92,63,35,29.95,29.72,15,4,17,0.00
2013-9-4,80,66,53,59,51,45,91,63,31,30.07,29.95,10,3,14,0.00
2013-9-5,79,64,52,63,51,41,94,67,32,30.16,30.01,12,3,15,0.00
2013-9-6,72,58,46,50,41,36,87,57,27,30.25,30.16,8,3,11,0.00
2013-9-7,77,59,42,54,47,41,95,71,33,30.16,29.92,6,1,11,0.00
2013-9-8,80,67,55,64,55,43,93,67,43,30.10,29.89,12,4,14,0.00
2013-9-9,72,60,46,61,51,41,93,72,54,30.22,30.10,10,3,13,0.00
2013-9-10,85,74,65,72,67,61,92,79,58,30.19,30.10,11,4,15,0.00
2013-9-11,88,77,68,75,68,63,92,77,46,30.16,30.01,13,2,15,0.00
2013-9-12,85,73,66,70,66,61,92,81,60,30.01,29.75,9,3,22,0.08
2013-9-13,73,66,59,64,53,43,93,65,36,29.92,29.69,15,5,17,0.12
2013-9-14,67,55,44,48,42,39,87,62,39,30.16,29.92,12,5,16,0.00
2013-9-15,70,54,39,55,45,37,95,75,41,30.22,30.10,8,2,13,0.00
2013-9-16,70,59,52,57,51,45,94,77,42,30.25,30.04,9,3,15,0.04
2013-9-17,66,52,41,46,37,32,88,60,33,30.40,30.25,10,4,15,0.00
2013-9-18,68,51,37,54,40,36,95,71,33,30.37,30.22,9,1,11,0.00
2013-9-19,73,55,39,57,45,37,95,75,40,30.22,30.10,9,2,11,0.00
2013-9-20,74,60,45,59,51,43,95,75,43,30.10,29.98,11,3,15,0.00
2013-9-21,73,61,49,63,55,46,95,81,49,30.01,29.72,13,3,23,0.71
2013-9-22,67,60,48,55,45,37,95,61,37,29.95,29.72,13,5,19,0.00
2013-9-23,64,53,42,43,38,34,88,60,37,30.07,29.95,15,4,17,0.00
2013-9-24,69,51,37,45,40,36,95,70,34,30.10,29.92,10,2,11,0.00
2013-9-25,74,53,38,50,41,36,96,71,30,29.98,29.86,7,1,9,0.00
2013-9-26,73,56,43,54,47,41,95,77,35,30.07,29.92,6,1,8,0.04
2013-9-27,72,59,50,59,50,43,94,75,37,30.25,30.07,8,2,10,0.00
2013-9-28,72,57,47,57,47,41,94,72,37,30.31,30.22,8,2,12,0.00
2013-9-29,72,56,44,55,46,43,95,74,39,30.22,30.07,10,2,15,0.00
2013-9-30,73,55,42,57,46,41,95,76,35,30.07,29.98,8,1,10,0.00
2013-10-1,77,59,45,61,50,43,95,75,39,30.04,29.95,10,2,15,0.00
2013-10-2,81,63,48,61,53,46,95,74,40,30.04,29.98,13,2,19,0.00
2013-10-3,80,65,52,63,56,50,95,77,43,30.13,30.01,7,1,8,0.00
2013-10-4,84,67,54,70,58,54,94,77,40,30.07,30.01,8,1,11,0.00
2013-10-5,87,71,59,68,60,57,94,73,37,30.07,29.98,7,2,9,0.00
2013-10-6,82,70,64,66,63,59,93,79,51,30.04,29.95,11,4,15,0.00
2013-10-7,72,64,54,68,59,39,92,84,56,30.01,29.77,26,6,29,0.59
2013-10-8,65,53,42,48,41,39,94,68,38,30.28,30.01,13,3,15,0.00
2013-10-9,58,52,46,46,44,41,95,74,57,30.31,30.19,13,5,17,0.00
2013-10-10,56,54,50,55,51,45,95,90,69,30.19,29.95,15,9,17,1.46
2013-10-11,62,59,56,59,57,54,94,92,87,30.01,29.92,13,7,20,2.09
2013-10-12,70,63,59,57,51,43,90,65,40,30.16,29.98,14,7,17,0.00
2013-10-13,68,59,51,54,47,43,84,66,44,30.34,30.16,13,5,15,0.00
2013-10-14,69,56,48,48,46,43,91,72,41,30.31,30.22,7,2,9,0.00
2013-10-15,72,54,42,55,44,36,95,72,32,30.22,30.07,9,1,10,0.00
2013-10-16,66,58,50,55,53,46,94,83,60,30.07,29.89,8,1,8,0.00
2013-10-17,70,63,57,63,58,55,94,86,64,29.89,29.69,10,2,15,0.04
2013-10-18,64,54,41,55,39,34,87,58,36,29.98,29.75,15,5,21,0.04
2013-10-19,63,50,37,54,43,36,95,79,47,29.98,29.75,13,3,15,0.04
2013-10-20,60,49,36,45,33,32,85,56,34,30.04,29.81,20,6,23,0.12
2013-10-21,64,47,32,46,35,32,95,69,34,30.10,29.92,11,2,20,0.00
2013-10-22,59,48,37,50,40,32,96,75,47,29.92,29.77,10,2,11,0.00
2013-10-23,55,44,38,37,33,32,87,61,37,29.81,29.63,11,4,17,0.00
2013-10-24,48,39,31,32,32,32,81,59,37,30.07,29.81,19,6,23,0.00
2013-10-25,50,39,28,32,32,32,86,59,39,30.25,30.04,15,5,19,0.00
2013-10-26,53,40,24,36,32,32,91,57,36,30.22,29.89,17,4,23,0.00
2013-10-27,56,44,31,32,32,32,82,52,35,30.13,29.86,13,4,20,0.00
2013-10-28,62,41,26,41,32,32,95,68,34,30.25,30.10,9,1,9,0.00
2013-10-29,61,44,33,37,33,32,90,68,36,30.34,30.25,8,2,8,0.00
2013-10-30,55,46,36,52,44,34,96,91,85,30.31,30.10,8,1,9,0.00
2013-10-31,63,56,49,57,52,46,96,86,70,30.16,29.75,13,4,16,0.00
2013-11-1,70,61,51,61,54,45,93,77,39,29.75,29.54,20,6,29,0.28
2013-11-2,65,53,44,57,42,32,96,70,37,29.77,29.60,12,3,17,0.00
2013-11-3,53,43,32,39,33,32,89,53,33,30.40,29.77,17,7,22,0.00
2013-11-4,46,34,24,32,32,32,75,49,31,30.54,30.40,13,3,15,0.00
2013-11-5,56,42,29,39,34,32,88,69,47,30.54,30.40,11,2,12,0.00
2013-11-6,62,51,39,48,42,36,95,74,49,30.40,30.01,10,4,17,0.00
2013-11-7,57,51,41,54,44,32,93,74,42,30.01,29.77,15,6,25,0.12
2013-11-8,47,38,27,32,32,32,73,49,37,30.19,29.95,16,6,26,0.00
2013-11-9,51,37,22,32,32,32,89,61,36,30.25,29.92,11,4,17,0.00
2013-11-10,58,44,28,32,32,32,88,50,33,30.07,29.83,22,9,29,0.00
2013-11-11,54,43,28,34,32,32,78,51,35,30.19,29.92,12,5,17,0.00
2013-11-12,46,34,21,32,32,32,63,48,39,30.28,29.86,20,7,26,0.00
2013-11-13,39,28,20,32,32,32,81,53,37,30.34,30.25,21,5,24,0.00
2013-11-14,54,35,20,32,32,32,81,49,20,30.25,30.13,12,4,17,0.00
2013-11-15,57,36,22,32,32,32,90,63,26,30.16,30.07,8,1,10,0.00
2013-11-16,54,44,35,46,39,32,95,83,60,30.25,30.16,10,2,12,0.04
2013-11-17,61,54,47,55,50,45,96,87,66,30.16,29.66,14,6,20,0.00
2013-11-18,63,56,44,57,38,32,93,47,25,29.81,29.60,20,8,26,0.12
2013-11-19,46,39,28,32,32,32,58,43,38,30.28,29.81,18,9,24,0.00
2013-11-20,46,31,20,32,32,32,81,52,29,30.45,30.25,9,2,11,0.00
2013-11-21,48,36,21,36,32,32,83,66,50,30.48,30.28,10,2,11,0.00
2013-11-22,53,47,42,46,42,34,95,81,70,30.28,29.89,10,2,15,0.00
2013-11-23,50,38,26,43,33,32,74,48,38,30.04,29.89,21,11,28,0.00
2013-11-24,28,23,20,32,32,32,46,36,31,30.37,30.04,27,13,34,0.00
2013-11-25,32,24,16,32,32,32,54,44,35,30.42,30.22,12,6,15,0.00
2013-11-26,50,33,29,48,34,32,97,68,39,30.22,29.51,12,5,18,1.10
2013-11-27,54,36,27,52,35,32,96,77,44,29.83,29.36,24,11,34,0.83
2013-11-28,33,27,23,32,32,32,69,49,40,30.37,29.83,20,7,24,0.00
2013-11-29,37,26,17,32,32,32,88,61,40,30.60,30.37,13,3,17,0.00
2013-11-30,36,25,14,32,32,32,83,65,44,30.60,30.28,10,2,10,0.00
2013-12-1,45,30,18,34,32,32,91,71,39,30.28,29.89,8,1,9,0.00
2013-12-2,49,38,31,32,32,32,87,68,42,29.92,29.77,4,0,6,0.00
2013-12-3,54,39,28,34,32,32,85,67,37,29.89,29.77,7,1,8,0.00
2013-12-4,51,41,28,43,36,32,95,78,58,29.98,29.89,6,2,9,0.00
2013-12-5,57,51,47,55,50,43,96,95,89,29.98,29.83,12,3,13,0.00
2013-12-6,59,46,34,57,44,32,95,92,87,30.07,29.77,17,7,17,0.98
2013-12-7,38,33,27,32,32,32,95,70,50,30.42,29.98,13,7,17,0.08
2013-12-8,28,25,23,32,32,32,96,73,51,30.48,30.19,8,4,12,0.00
2013-12-9,35,32,28,36,32,32,98,95,87,30.19,29.89,7,2,9,0.31
2013-12-10,33,28,19,32,32,32,98,83,55,30.07,29.86,10,4,17,0.04
2013-12-11,34,20,8,32,32,32,88,68,40,30.28,30.07,12,3,17,0.00
2013-12-12,27,17,6,32,32,32,85,53,37,30.28,30.10,12,4,14,0.00
2013-12-13,34,24,8,32,32,32,76,50,38,30.22,30.07,15,5,20,0.00
2013-12-14,34,29,21,32,32,32,97,79,51,30.25,29.69,13,4,15,0.75
2013-12-15,40,31,24,32,32,32,97,73,45,29.89,29.60,22,5,26,0.35
2013-12-16,31,25,20,32,32,32,72,50,43,30.19,29.89,13,6,19,0.00
2013-12-17,31,25,20,32,32,32,88,72,47,30.19,29.92,6,3,8,0.00
2013-12-18,35,26,16,32,32,32,94,63,40,30.19,29.95,14,5,21,0.00
2013-12-19,46,29,14,32,32,32,88,67,39,30.19,30.07,9,2,10,0.00
2013-12-20,48,36,25,34,32,32,90,68,40,30.10,29.98,10,2,12,0.00
2013-12-21,62,49,33,54,41,32,90,74,55,30.01,29.89,14,5,16,0.00
2013-12-22,64,60,56,61,56,52,91,88,82,29.98,29.83,16,8,26,0.04
2013-12-23,58,51,35,55,47,32,94,81,54,30.19,29.92,17,6,26,0.71
2013-12-24,37,30,22,32,32,32,79,53,42,30.40,30.16,24,9,30,0.00
2013-12-25,30,23,16,32,32,32,58,46,39,30.51,30.40,11,5,15,0.00
2013-12-26,39,27,19,32,32,32,83,65,40,30.37,30.19,23,3,24,0.00
2013-12-27,46,28,16,32,32,32,87,60,29,30.40,30.28,13,2,17,0.00
2013-12-28,56,34,19,32,32,32,87,60,29,30.31,30.10,11,2,13,0.00
2013-12-29,44,37,32,42,36,31,97,86,65,30.10,29.51,19,4,22,0.94
2013-12-30,41,33,24,38,22,7,96,67,45,30.16,29.77,16,6,21,0.00
2013-12-31,36,27,21,18,10,6,69,50,40,30.28,30.07,20,5,30,0.00
2014-1-1,40,28,16,22,15,6,82,61,42,30.37,30.16,11,3,14,0.00
2014-1-2,32,27,18,25,21,15,91,79,63,30.16,29.63,10,5,15,0.00